W5GED Weather Reports


time (UTC)temp
F
wind
direction
speed
knots
gust
knots
rain 1hr
in
rain 24hr
in
rain mn
in
humidity
%
barometer
mb
20260502170517 70 23 4.3 8.7 0.00 1.66 0.00 55 1020.0
20260502164021 68 2 4.3 7.8 0.00 1.66 0.00 58 1020.0
20260502163018 68 3 3.5 7.8 0.00 1.68 0.00 59 1020.0
20260502162018 68 33 4.3 9.6 0.00 1.68 0.00 60 1020.0
20260502161018 67 34 3.5 7.8 0.00 1.70 0.00 63 1020.0
20260502152035 64 7 2.6 6.1 0.00 1.82 0.00 70 1019.7
20260502151019 63 357 2.6 7.0 0.00 1.82 0.00 72 1019.8
20260502123024 53 340 1.7 3.5 0.00 2.09 0.00 94 1018.1
20260502122024 53 330 1.7 3.5 0.00 2.09 0.00 94 1018.0
20260502121024 53 346 1.7 3.5 0.00 2.11 0.00 94 1017.9
20260502115024 53 344 1.7 2.6 0.00 2.11 0.00 93 1017.6
20260502114024 53 346 1.7 2.6 0.00 2.12 0.00 93 1017.6
20260502113024 53 303 0.9 1.7 0.00 2.12 0.00 92 1017.6
20260502112024 53 319 0.9 1.7 0.00 2.12 0.00 92 1017.5
20260502111025 53 352 0.9 2.6 0.00 2.12 0.00 92 1017.3
20260502110025 53 336 1.7 3.5 0.00 2.12 0.00 92 1017.1
20260502105025 54 356 1.7 2.6 0.00 2.12 0.00 91 1017.0
20260502104025 54 349 1.7 2.6 0.00 2.12 0.00 91 1017.0
20260502103025 54 351 1.7 2.6 0.00 2.13 0.00 91 1016.9
20260502102025 54 356 1.7 3.5 0.00 2.13 0.00 90 1016.7
20260502101026 54 349 1.7 2.6 0.00 2.14 0.00 90 1016.6
20260502091026 56 51 1.7 4.3 0.00 2.34 0.00 88 1015.5
20260502071018 56 43 3.5 6.1 0.00 2.66 0.00 92 1015.3
20260502070028 56 40 2.6 3.5 0.00 2.69 0.00 92 1015.5
20260502065027 56 45 1.7 4.3 0.00 2.69 0.00 92 1015.4
20260502064020 56 42 2.6 6.1 0.00 2.69 0.00 91 1015.5
20260502063039 56 19 3.5 7.0 0.00 2.69 0.00 91 1015.4
20260502062019 56 7 2.6 5.2 0.00 2.69 0.00 92 1015.2
20260502061019 56 20 3.5 7.0 0.00 2.69 0.00 92 1015.2
20260502060019 56 293 3.5 6.1 0.00 2.69 0.00 92 1015.2
20260502055019 56 274 2.6 6.1 0.00 2.69 0.00 92 1015.2
20260502054019 56 274 2.6 5.2 0.00 2.69 0.00 92 1015.2
20260502053019 56 274 3.5 7.8 0.00 2.70 0.00 93 1015.1
20260502052020 56 272 4.3 7.8 0.00 2.74 0.00 93 1015.0
20260502051020 56 274 4.3 7.8 0.00 2.74 0.00 94 1015.1
20260502050020 56 272 4.3 7.0 0.00 2.74 0.00 94 1014.9
20260502045020 56 271 2.6 7.0 0.00 2.75 2.75 94 1014.7
20260502044020 56 273 2.6 5.2 0.00 2.92 2.75 94 1014.7
20260502043020 56 273 2.6 5.2 0.00 2.94 2.75 94 1014.8
20260502042021 56 273 2.6 5.2 0.00 2.94 2.75 95 1015.1
20260502041030 0 272 2.6 2.6 0.00 2.94 2.75
20260502040021 56 274 3.5 7.0 0.00 2.94 2.75 96 1014.8
20260502035030 56 274 1.7 4.3 0.00 2.94 2.75 96 1014.9
20260502034021 56 274 2.6 4.3 0.00 2.94 2.75 96 1014.9
20260502033041 56 269 2.6 8.7 0.00 2.94 2.75 97 1014.7
20260502032021 56 273 2.6 4.3 0.00 2.94 2.75 97 1014.4
20260502031021 56 263 2.6 6.1 0.00 2.94 2.75 97 1014.3
20260502030021 56 261 2.6 5.2 0.01 2.94 2.75 97 1014.1
20260502025021 56 250 3.5 7.0 0.01 2.94 2.75 97 1013.6
20260502024042 57 250 3.5 6.1 0.02 2.94 2.75 97 1013.3
20260502023019 57 257 4.3 9.6 0.03 2.94 2.74 97 1013.1
20260502022016 57 263 4.3 7.8 0.04 2.94 2.74 97 1013.3
20260502021015 57 260 3.5 6.1 0.05 2.93 2.74 97 1012.8
20260502020022 58 270 3.5 7.8 0.07 2.93 2.74 97 1013.0
20260502015022 58 264 2.6 5.2 0.09 2.93 2.73 97 1012.8
20260502014022 59 266 4.3 7.0 0.08 2.92 2.72 97 1012.8
20260502013036 59 269 2.6 6.1 0.07 2.90 2.71 98 1012.6
20260502012016 59 270 1.7 3.5 0.08 2.90 2.70 97 1012.5
20260502011017 59 270 3.5 5.2 0.09 2.88 2.69 97 1012.1
20260502010016 59 0.0 0.0 0.09 2.87 2.67 97 1011.9
20260502005023 59 271 2.6 3.5 0.07 2.84 2.65 97 1012.4
20260502004052 59 269 1.7 2.6 0.08 2.83 2.64 97 1012.5
20260502003023 59 270 2.6 6.1 0.08 2.83 2.63 97 1011.4
20260502002017 59 268 4.3 7.8 0.07 2.82 2.63 97 1011.1
20260502001017 59 265 2.6 6.1 0.05 2.80 2.60 97 1011.5
20260502000023 59 267 3.5 6.1 0.04 2.77 2.58 97 1011.4
20260501235018 59 13 7.8 11.3 0.08 2.77 2.57 97 1011.6
20260501234227 0 10 7.8 10.4 0.07 2.75 2.56
20260501233044 0 14 7.8 10.4 0.07 2.75 2.56
20260501232100 60 10 7.0 11.3 0.07 2.75 2.56 96 1009.7
20260501231018 60 351 8.7 14.8 0.07 2.75 2.56 96 1009.7
20260501230018 61 0.0 0.0 0.05 2.73 2.54 96 1010.5
20260501225018 61 0.0 0.0 0.01 2.69 2.49 96 1011.0
20260501224017 61 315 7.0 9.6 0.00 2.68 2.49 97 1009.6
20260501223017 61 317 6.1 13.9 0.00 2.68 2.49 97 1009.4
20260501222016 61 275 5.2 8.7 0.01 2.68 2.49 97 1009.5
20260501221037 61 280 5.2 7.0 0.03 2.68 2.49 97 1009.4
20260501215543 62 252 4.3 7.0 0.06 2.68 2.49 98 1009.8
20260501214528 62 0.0 0.0 0.06 2.68 2.49 98 1010.1
20260501213519 62 0.0 0.0 0.07 2.68 2.49 98 1010.1
20260501212537 62 128 11.3 26.1 0.12 2.68 2.49 98 1010.3
20260501211516 62 123 13.0 33.9 0.24 2.66 2.47 98 1010.2
20260501210516 62 132 26.1 43.4 0.24 2.63 2.44 98 1010.3
20260501205517 62 131 23.5 43.4 0.28 2.62 2.42 98 1008.9
20260501204518 62 130 9.6 36.5 0.29 2.61 2.42 98 1009.0
20260501203520 62 102 8.7 16.5 0.30 2.61 2.41 98 1008.9
20260501202518 62 65 3.5 6.1 0.28 2.56 2.36 98 1009.1
20260501201629 0 41 2.6 2.6 0.20 2.42 2.23
20260501200517 62 47 2.6 5.2 0.18 2.39 2.20 98 1009.0
20260501195518 62 58 3.5 7.0 0.20 2.34 2.14 98 1008.6
20260501194518 62 42 3.5 7.0 0.22 2.33 2.13 98 1008.5
20260501193519 62 0.0 0.0 0.20 2.30 2.11 98 1008.7
20260501192526 62 56 4.3 7.0 0.19 2.27 2.08 98 1008.5
20260501191814 62 29 2.6 7.0 0.37 2.22 2.03 98 1009.1
20260501190603 62 31 3.5 8.7 0.51 2.22 2.02 98 1009.0
20260501185520 62 277 1.7 5.2 0.43 2.14 1.94 98 1009.4
20260501184521 62 107 2.6 4.3 0.56 2.10 1.91 98 1008.6
20260501183739 0 341 2.6 4.3 0.69 2.10 1.91
20260501182518 62 352 8.7 18.2 0.71 2.08 1.89 98 1007.8
20260501181518 62 5 8.7 21.7 0.56 1.86 1.66 98 1009.2
20260501180518 62 16 8.7 20.0 0.43 1.71 1.52 98 1008.1
20260501175531 63 43 6.1 10.4 0.43 1.70 1.51 98 1008.6
20260501174515 63 81 6.1 10.4 0.27 1.54 1.35 98 1009.1
20260501173520 63 121 1.7 4.3 0.14 1.42 1.22 98 1010.0